• Join FlightAware (Why Join?)
  • Login
  • US Flag GB Flag 
02:20 EDT


 

Airport Tracker/Info


-or-


 

Live Flight TrackerFlight Track Log ✈ DAL268 ✈ 19-Sep-2013 ✈ KSFO - KJFK

Flight Track Log - Related Links

Times and Time Zones

All times are in EDT time to prevent confusion due to time zone crossing. See the DAL268 flight status page for this flight to view local times or setup timezone preferences in your user account.

Time Position Orientation Groundspeed Altitude Reporting Facility
EDT Latitude Longitude Course Direction KTS MPH feet Rate Location/Type
14:31 37.6229 -122.3700 29° Northeast 164 189 200  Level FlightAware ADS-B
14:32 37.6318 -122.3640 28° Northeast 163 188 800 2,400 Climbing FlightAware ADS-B
14:32 37.6356 -122.3600 40° Northeast 169 194 1,000 1,980 Climbing FlightAware ADS-B
14:32 37.6387 -122.3560 46° Northeast 170 196 1,200 1,980 Climbing FlightAware ADS-B
14:32 37.6468 -122.3440 50° Northeast 181 208 1,700 1,920 Climbing FlightAware ADS-B
14:32 37.6566 -122.3310 46° Northeast 193 222 2,200 2,040 Climbing FlightAware ADS-B
14:32 37.6628 -122.3220 49° Northeast 198 228 2,600 2,040 Climbing FlightAware ADS-B
14:33 37.6730 -122.3080 47° Northeast 211 243 3,100 1,980 Climbing FlightAware ADS-B
14:33 37.6847 -122.2920 47° Northeast 226 260 3,700 1,800 Climbing FlightAware ADS-B
14:33 37.7041 -122.2640 49° Northeast 256 295 4,400 1,860 Climbing FlightAware ADS-B
14:34 37.7186 -122.2430 49° Northeast 264 304 5,100 2,520 Climbing FlightAware ADS-B
14:34 37.7311 -122.2250 49° Northeast 271 312 5,800 2,820 Climbing FlightAware ADS-B
14:34 37.7500 -122.1990 47° Northeast 274 315 6,900 2,700 Climbing FlightAware ADS-B
14:35 37.7648 -122.1780 48° Northeast 282 325 7,600 2,460 Climbing FlightAware ADS-B
14:35 37.7799 -122.1570 48° Northeast 287 330 8,300 2,400 Climbing FlightAware ADS-B
14:35 37.7897 -122.1450 44° Northeast 291 335 8,700 2,520 Climbing FlightAware ADS-B
14:35 37.8011 -122.1340 37° Northeast 293 337 9,200 2,640 Climbing FlightAware ADS-B
14:36 37.8189 -122.1180 35° Northeast 294 338 9,900 1,920 Climbing FlightAware ADS-B
14:36 37.8537 -122.0850 37° Northeast 319 367 10,700 1,260 Climbing FlightAware ADS-B
14:37 37.8927 -122.0500 35° Northeast 354 407 11,200 1,140 Climbing FlightAware ADS-B
14:37 37.9343 -122.0130 35° Northeast 377 434 11,900 1,740 Climbing FlightAware ADS-B
14:38 37.9801 -121.9710 36° Northeast 388 447 13,000 2,100 Climbing FlightAware ADS-B
14:38 38.0432 -121.9150 35° Northeast 398 458 14,500 2,040 Climbing FlightAware ADS-B
14:39 38.1060 -121.8580 36° Northeast 407 468 15,900 1,920 Climbing FlightAware
14:40 38.1570 -121.8030 40° Northeast 420 483 17,000 1,800 Climbing FlightAware
14:40 38.1980 -121.7400 50° Northeast 426 490 18,000 1,800 Climbing FlightAware
14:41 38.2460 -121.6650 51° Northeast 432 497 19,200 1,800 Climbing FlightAware
14:41 38.2850 -121.6010 52° Northeast 437 503 20,100 1,740 Climbing FlightAware
14:42 38.3340 -121.5230 51° Northeast 442 509 21,300 1,740 Climbing FlightAware
14:43 38.3800 -121.4490 52° Northeast 449 517 22,300 1,560 Climbing FlightAware
14:43 38.4270 -121.3750 51° Northeast 455 524 23,200 1,500 Climbing FlightAware
14:44 38.4700 -121.3060 51° Northeast 462 532 24,000 1,500 Climbing FlightAware
14:44 38.5160 -121.2340 51° Northeast 467 537 24,900 1,500 Climbing FlightAware
14:45 38.5620 -121.1610 51° Northeast 471 542 25,700 1,380 Climbing FlightAware
14:45 38.6040 -121.0950 51° Northeast 476 548 26,400 1,200 Climbing FlightAware
14:46 38.6550 -121.0140 51° Northeast 482 555 27,100 1,200 Climbing FlightAware
14:46 38.7010 -120.9400 51° Northeast 487 560 27,800 1,200 Climbing FlightAware
14:47 38.7520 -120.8590 51° Northeast 491 565 28,500 1,320 Climbing FlightAware
14:48 38.8010 -120.7800 51° Northeast 488 562 29,400 1,620 Climbing FlightAware
14:48 38.8470 -120.7050 52° Northeast 485 558 30,400 1,560 Climbing FlightAware
14:49 38.8980 -120.6230 51° Northeast 483 556 31,200 1,320 Climbing FlightAware
14:49 38.9460 -120.5450 52° Northeast 481 554 32,000 1,320 Climbing FlightAware
14:50 38.9950 -120.4670 51° Northeast 481 554 32,800 1,260 Climbing FlightAware
14:51 39.0480 -120.3810 52° Northeast 479 551 33,600 1,200 Climbing FlightAware
14:51 39.0920 -120.3080 52° Northeast 478 550 34,200 840 Climbing FlightAware
14:52 39.1410 -120.2280 52° Northeast 484 557 34,600 900 Climbing FlightAware
14:52 39.1910 -120.1470 51° Northeast 481 554 35,300 1,260 Climbing FlightAware
14:53 39.2370 -120.0710 52° Northeast 475 547 36,100 1,200 Climbing FlightAware
14:54 39.2850 -119.9910 52° Northeast 474 545 36,700 780 Climbing FlightAware
14:54 39.3300 -119.9180 51° Northeast 475 547 37,000 240 Climbing FlightAware
14:55 39.3810 -119.8330 52° Northeast 474 545 37,000  Level FlightAware
14:55 39.4270 -119.7570 52° Northeast 476 548 37,000  Level FlightAware
14:56 39.4720 -119.6830 52° Northeast 476 548 37,000  Level FlightAware
14:56 39.5210 -119.6010 52° Northeast 475 547 37,000  Level FlightAware
14:57 39.5680 -119.5220 52° Northeast 476 548 37,000  Level FlightAware
14:57 39.6060 -119.4580 52° Northeast 475 547 37,000  Level FlightAware
14:58 39.6490 -119.3860 52° Northeast 475 547 37,000  Level FlightAware
14:59 39.6990 -119.3040 52° Northeast 475 547 37,000  Level FlightAware
14:59 39.7460 -119.2240 53° Northeast 475 547 37,000  Level FlightAware
15:00 39.7920 -119.1470 52° Northeast 475 547 37,000  Level FlightAware
15:00 39.8370 -119.0700 53° Northeast 475 547 37,000  Level FlightAware
15:01 39.8870 -118.9840 53° Northeast 475 547 37,000  Level FlightAware
15:02 39.9360 -118.9010 52° Northeast 475 547 37,000  Level FlightAware
15:02 39.9790 -118.8280 52° Northeast 473 544 37,000  Level FlightAware
15:03 40.0250 -118.7490 53° Northeast 474 545 37,000  Level FlightAware
15:03 40.0740 -118.6650 53° Northeast 474 545 37,000  Level FlightAware
15:04 40.1190 -118.5820 55° Northeast 475 547 37,000  Level FlightAware
15:04 40.1480 -118.4980 66° East 477 549 37,000  Level FlightAware
15:05 40.1730 -118.4060 70° East 477 549 37,000  Level FlightAware
15:06 40.2020 -118.3010 70° East 476 548 37,000  Level FlightAware
15:06 40.2280 -118.2020 71° East 475 547 37,000  Level FlightAware
15:07 40.2650 -118.0680 70° East 475 547 37,000  Level FlightAware
15:08 40.2890 -117.9800 70° East 475 547 37,000  Level FlightAware
15:09 40.3340 -117.8130 70° East 475 547 37,000  Level FlightAware
15:09 40.3650 -117.6990 70° East 474 545 37,000  Level FlightAware
15:10 40.3880 -117.6160 70° East 474 545 37,000  Level FlightAware
15:11 40.4200 -117.5010 70° East 474 545 37,000  Level FlightAware
15:11 40.4430 -117.4190 70° East 474 545 37,000  Level FlightAware
15:12 40.4660 -117.3360 70° East 474 545 37,000  Level FlightAware
15:13 40.4890 -117.2530 70° East 474 545 37,000  Level FlightAware
15:13 40.5110 -117.1700 71° East 474 545 37,000  Level FlightAware
15:14 40.5350 -117.0850 70° East 474 545 37,000  Level FlightAware
15:14 40.5580 -117.0020 70° East 474 545 37,000  Level FlightAware
15:15 40.5810 -116.9190 70° East 474 545 37,000  Level FlightAware
15:16 40.6040 -116.8360 70° East 474 545 37,000  Level FlightAware
15:16 40.6270 -116.7520 70° East 474 545 37,000  Level FlightAware
15:17 40.6520 -116.6620 70° East 474 545 37,000  Level FlightAware
15:18 40.6730 -116.5840 70° East 474 545 37,000  Level FlightAware
15:18 40.6960 -116.5010 70° East 474 545 37,000  Level FlightAware
15:19 40.8339 -116.2420 55° Northeast 37,000  Level FlightAware ADS-B
15:19 40.8638 -116.1640 63° Northeast 470 541 37,000  Level FlightAware ADS-B
15:20 40.9093 -116.0450 63° Northeast 470 541 37,000  Level FlightAware ADS-B
15:20 40.9386 -115.9680 63° Northeast 469 540 37,000  Level FlightAware ADS-B
15:21 40.9682 -115.8900 63° Northeast 470 541 37,000  Level FlightAware ADS-B
15:21 41.0007 -115.8050 63° Northeast 470 541 37,000  Level FlightAware ADS-B
15:22 41.0529 -115.6670 63° Northeast 470 541 37,000  Level FlightAware ADS-B
15:23 41.0948 -115.5550 64° Northeast 470 541 37,000  Level FlightAware ADS-B
15:24 41.1319 -115.4560 64° Northeast 470 541 37,000  Level FlightAware ADS-B
15:24 41.1708 -115.3520 64° Northeast 470 541 37,000  Level FlightAware ADS-B
15:25 41.2000 -115.2740 64° Northeast 470 541 37,000  Level FlightAware ADS-B
15:25 41.2293 -115.1950 64° Northeast 470 541 37,000  Level FlightAware ADS-B
15:26 41.2592 -115.1150 64° Northeast 470 541 37,000  Level FlightAware ADS-B
15:26 41.2893 -115.0330 64° Northeast 471 542 37,000  Level FlightAware ADS-B
15:27 41.3181 -114.9550 64° Northeast 471 542 37,000  Level FlightAware ADS-B
15:27 41.3475 -114.8750 64° Northeast 471 542 37,000  Level FlightAware ADS-B
15:28 41.3810 -114.7850 64° Northeast 471 542 37,000  Level FlightAware
15:28 41.3941 -114.7470 65° Northeast 471 542 37,000  Level FlightAware ADS-B
15:29 41.4332 -114.6410 64° Northeast 472 543 37,000  Level FlightAware ADS-B
15:29 41.4641 -114.5560 64° Northeast 474 545 37,000  Level FlightAware ADS-B
15:30 41.4929 -114.4760 64° Northeast 475 547 37,000  Level FlightAware ADS-B
15:30 41.5224 -114.3940 64° Northeast 475 547 37,000  Level FlightAware ADS-B
15:31 41.5558 -114.3020 64° Northeast 476 548 37,000  Level FlightAware ADS-B
15:32 41.5849 -114.2210 64° Northeast 475 547 37,000  Level FlightAware ADS-B
15:32 41.6136 -114.1410 64° Northeast 475 547 37,000  Level FlightAware ADS-B
15:33 41.6420 -114.0610 65° Northeast 475 547 37,000  Level FlightAware ADS-B
15:33 41.6794 -113.9560 64° Northeast 476 548 37,000  Level FlightAware ADS-B
15:34 41.7135 -113.8600 65° Northeast 476 548 37,000  Level FlightAware ADS-B
15:34 41.7458 -113.7680 65° Northeast 474 545 37,000  Level FlightAware ADS-B
15:35 41.7740 -113.6880 65° Northeast 474 545 37,000  Level FlightAware ADS-B
15:35 41.8022 -113.6080 65° Northeast 474 545 37,000  Level FlightAware ADS-B
15:36 41.8337 -113.5180 65° Northeast 474 545 37,000  Level FlightAware ADS-B
15:37 41.8620 -113.4360 65° Northeast 472 543 37,000  Level FlightAware
15:37 41.8868 -113.3660 65° Northeast 472 543 37,000  Level FlightAware ADS-B
15:38 41.9286 -113.2460 65° Northeast 471 542 37,000  Level FlightAware ADS-B
15:38 41.9571 -113.1630 65° Northeast 469 540 37,000  Level FlightAware ADS-B
15:39 41.9883 -113.0730 65° Northeast 469 540 37,000  Level FlightAware ADS-B
15:40 42.0311 -112.9480 65° Northeast 469 540 37,000  Level FlightAware ADS-B
15:40 42.0660 -112.8460 65° Northeast 468 539 37,000  Level FlightAware
15:41 42.0801 -112.8050 65° Northeast 469 540 37,000  Level FlightAware ADS-B
15:41 42.1240 -112.6760 65° Northeast 467 537 37,000  Level FlightAware
15:42 42.1496 -112.6000 66° East 467 537 37,000  Level FlightAware ADS-B
15:43 42.2010 -112.4620 63° Northeast 457 526 37,000  Level FlightAware
15:43 42.2390 -112.4030 49° Northeast 444 511 37,000  Level FlightAware
15:44 42.2990 -112.3290 42° Northeast 444 511 37,000  Level FlightAware
15:45 42.3640 -112.2480 43° Northeast 440 506 37,000  Level FlightAware
15:45 42.4240 -112.1750 42° Northeast 440 506 37,000  Level FlightAware
15:46 42.4700 -112.1190 42° Northeast 440 506 37,000  Level FlightAware
15:47 42.5516 -112.0150 43° Northeast 439 505 37,000  Level FlightAware ADS-B
15:47 42.6024 -111.9520 42° Northeast 439 505 37,000  Level FlightAware ADS-B
15:48 42.6508 -111.8910 43° Northeast 439 505 37,000  Level FlightAware ADS-B
15:48 42.6966 -111.8340 42° Northeast 440 506 37,000  Level FlightAware ADS-B
15:49 42.7484 -111.7690 43° Northeast 441 507 37,000  Level FlightAware ADS-B
15:49 42.7947 -111.7100 43° Northeast 442 509 37,000  Level FlightAware ADS-B
15:50 42.8411 -111.6510 43° Northeast 442 509 37,000  Level FlightAware ADS-B
15:51 42.8390 -111.6670 260° West 440 506 37,000  Level FlightAware
15:51 42.8850 -111.6100 42° Northeast 440 506 37,000  Level FlightAware
15:52 42.9320 -111.5530 42° Northeast 440 506 37,000  Level FlightAware
15:52 42.9780 -111.4960 42° Northeast 440 506 37,000  Level FlightAware
15:53 43.0240 -111.4390 42° Northeast 440 506 37,000  Level FlightAware
15:54 43.0700 -111.3820 42° Northeast 440 506 37,000  Level FlightAware
15:54 43.1170 -111.3250 42° Northeast 440 506 37,000  Level FlightAware
15:55 43.2958 -111.0700 42° Northeast 439 505 37,000  Level Salt Lake Center
15:56 43.3947 -110.9428 43° Northeast 438 504 37,000  Level Salt Lake Center
15:57 43.4797 -110.8297 44° Northeast 443 510 37,000  Level Salt Lake Center
15:58 43.5811 -110.6978 43° Northeast 449 517 37,000  Level Salt Lake Center
16:04 44.0700 -110.0510 43° Northeast 444 511 37,000  Level FlightAware
16:04 44.1180 -109.9860 44° Northeast 442 509 37,000  Level FlightAware
16:05 44.1810 -109.9010 44° Northeast 440 506 37,000  Level FlightAware
16:05 44.2320 -109.8320 44° Northeast 439 505 37,000  Level FlightAware
16:06 44.2800 -109.7670 44° Northeast 439 505 37,000  Level FlightAware
16:07 44.3330 -109.6950 44° Northeast 439 505 37,000  Level FlightAware
16:07 44.3800 -109.6320 44° Northeast 440 506 37,000  Level FlightAware
16:08 44.4330 -109.5580 45° Northeast 442 509 37,000  Level FlightAware
16:08 44.4850 -109.4870 44° Northeast 445 512 37,000  Level FlightAware
16:09 44.5360 -109.4180 44° Northeast 446 513 37,000  Level FlightAware
16:10 44.5920 -109.3400 45° Northeast 446 513 37,000  Level FlightAware
16:10 44.6380 -109.2770 44° Northeast 446 513 37,000  Level FlightAware
16:11 44.6820 -109.2160 45° Northeast 448 516 37,000  Level FlightAware
16:11 44.7530 -109.1180 44° Northeast 449 517 37,000  Level FlightAware
16:12 44.8060 -109.0440 45° Northeast 449 517 37,000  Level FlightAware
16:13 44.8580 -108.9710 45° Northeast 449 517 37,000  Level FlightAware
16:13 44.9050 -108.9060 44° Northeast 450 518 37,000  Level FlightAware
16:14 44.9600 -108.8290 45° Northeast 449 517 37,000  Level FlightAware
16:14 45.0130 -108.7540 45° Northeast 449 517 37,000  Level FlightAware
16:15 45.0640 -108.6820 45° Northeast 449 517 37,000  Level FlightAware
16:15 45.1130 -108.6140 44° Northeast 450 518 37,000  Level FlightAware
16:16 45.1660 -108.5370 46° Northeast 451 519 37,000  Level FlightAware
16:17 45.2140 -108.4700 45° Northeast 451 519 37,000  Level FlightAware
16:17 45.2660 -108.3960 45° Northeast 452 520 37,000  Level FlightAware
16:18 45.3190 -108.3190 46° Northeast 452 520 37,000  Level FlightAware
16:18 45.3610 -108.2590 45° Northeast 453 521 37,000  Level FlightAware
16:19 45.4120 -108.1860 45° Northeast 454 522 37,000  Level FlightAware
16:19 45.4670 -108.1070 45° Northeast 453 521 37,000  Level FlightAware
16:20 45.5140 -108.0390 45° Northeast 451 519 37,000  Level FlightAware
16:21 45.5680 -107.9610 45° Northeast 449 517 37,000  Level FlightAware
16:21 45.6220 -107.8830 45° Northeast 449 517 37,000  Level FlightAware
16:22 45.6650 -107.8200 46° Northeast 449 517 37,000  Level FlightAware
16:22 45.7210 -107.7370 46° Northeast 449 517 37,000  Level FlightAware
16:23 45.7660 -107.6730 45° Northeast 449 517 37,000  Level FlightAware
16:24 45.8170 -107.5980 46° Northeast 449 517 37,000  Level FlightAware
16:24 45.8700 -107.5210 45° Northeast 450 518 37,000  Level FlightAware
16:25 45.9360 -107.4220 46° Northeast 452 520 37,000  Level FlightAware
16:25 45.9830 -107.3520 46° Northeast 453 521 37,000  Level FlightAware
16:26 46.0360 -107.2730 46° Northeast 454 522 37,000  Level FlightAware
16:27 46.0870 -107.1970 46° Northeast 455 524 37,000  Level FlightAware
16:27 46.1360 -107.1250 46° Northeast 456 525 37,000  Level FlightAware
16:28 46.1820 -107.0560 46° Northeast 459 528 37,000  Level FlightAware
16:28 46.2400 -106.9670 47° Northeast 460 529 37,000  Level FlightAware
16:29 46.2940 -106.8870 46° Northeast 461 531 37,000  Level FlightAware
16:30 46.3420 -106.8150 46° Northeast 464 534 37,000  Level FlightAware
16:30 46.3920 -106.7380 47° Northeast 464 534 37,000  Level FlightAware
16:31 46.4470 -106.6550 46° Northeast 465 535 37,000  Level FlightAware
16:31 46.4940 -106.5850 46° Northeast 465 535 37,000  Level FlightAware
16:32 46.5390 -106.5160 47° Northeast 465 535 37,000  Level FlightAware
16:33 46.5850 -106.4470 46° Northeast 465 535 37,000  Level FlightAware
16:33 46.6300 -106.3800 46° Northeast 465 535 37,000  Level FlightAware
16:34 46.6750 -106.3110 46° Northeast 465 535 37,000  Level FlightAware
16:34 46.7760 -106.1490 48° Northeast 471 542 37,000  Level FlightAware
16:35 46.8310 -106.0630 47° Northeast 471 542 37,000  Level FlightAware
16:36 46.8830 -105.9830 46° Northeast 471 542 37,000  Level FlightAware
16:36 46.9380 -105.8950 48° Northeast 471 542 37,000  Level FlightAware
16:37 46.9740 -105.8400 46° Northeast 471 542 37,000  Level FlightAware
16:37 47.0280 -105.7540 47° Northeast 471 542 37,000  Level FlightAware
16:38 47.0770 -105.6640 51° Northeast 475 547 37,000  Level FlightAware
16:38 47.0870 -105.6210 71° East 476 548 37,000  Level FlightAware
16:38 47.0920 -105.5670 82° East 478 550 37,000  Level FlightAware
16:39 47.0820 -105.4650 98° East 478 550 37,000  Level FlightAware
16:40 47.0630 -105.3110 100° East 478 550 37,000  Level FlightAware
16:40 47.0510 -105.2130 100° East 478 550 37,000  Level FlightAware
16:41 47.0390 -105.1160 100° East 478 550 37,000  Level FlightAware
16:42 47.0280 -105.0180 99° East 478 550 37,000  Level FlightAware
16:42 47.0160 -104.9200 100° East 478 550 37,000  Level FlightAware
16:43 47.0040 -104.8220 100° East 478 550 37,000  Level FlightAware
16:43 46.9920 -104.7220 100° East 478 550 37,000  Level FlightAware
16:44 46.9800 -104.6240 100° East 478 550 37,000  Level FlightAware
16:45 46.9690 -104.5270 99° East 478 550 37,000  Level FlightAware
16:45 46.9570 -104.4290 100° East 478 550 37,000  Level FlightAware
16:46 46.9450 -104.3290 100° East 478 550 37,000  Level FlightAware
16:46 46.9330 -104.2310 100° East 478 550 37,000  Level FlightAware
16:47 46.9210 -104.1330 100° East 478 550 37,000  Level FlightAware
16:48 46.9090 -104.0360 100° East 478 550 37,000  Level FlightAware
16:48 46.8980 -103.9380 99° East 478 550 37,000  Level FlightAware
16:49 46.8860 -103.8410 100° East 478 550 37,000  Level FlightAware
16:50 46.7994 -103.4322 100° East 485 558 37,000  Level Salt Lake Center
16:51 46.7650 -103.2058 102° East 483 556 37,000  Level Salt Lake Center
16:52 46.7375 -103.0169 102° East 482 555 37,000 120 Level Salt Lake Center
16:53 46.7083 -102.8286 103° East 481 554 37,300 600 Climbing Salt Lake Center
16:54 46.6783 -102.6403 103° East 481 554 38,300 780 Climbing Salt Lake Center
16:55 46.6494 -102.4564 103° East 476 548 39,000 300 Climbing Salt Lake Center
16:56 46.6214 -102.2708 102° East 473 544 39,000  Level Salt Lake Center
16:57 46.5911 -102.0853 103° East 473 544 39,000  Level Salt Lake Center
16:58 46.5553 -101.8617 103° East 475 547 39,000  Level Salt Lake Center
16:59 46.5139 -101.6117 103° East 478 550 39,000  Level Minneapolis Center
17:00 46.4825 -101.4253 104° East 477 549 39,000  Level Minneapolis Center
17:01 46.4508 -101.2392 104° East 475 547 39,000  Level Minneapolis Center
17:02 46.4192 -101.0522 104° East 476 548 39,000  Level Minneapolis Center
17:03 46.3869 -100.8653 104° East 477 549 39,000  Level Minneapolis Center
17:04 46.3481 -100.6439 104° East 474 545 39,000  Level Minneapolis Center
17:05 46.3156 -100.4592 104° East 473 544 39,000  Level Minneapolis Center
17:07 46.2833 -100.2750 104° East 472 543 39,000  Level Minneapolis Center
17:08 46.2494 -100.0922 105° East 471 542 39,000  Level Minneapolis Center
17:09 46.2156 -99.9086 105° East 471 542 39,000  Level Minneapolis Center
17:10 46.1819 -99.7261 105° East 470 541 39,000  Level Minneapolis Center
17:11 46.1489 -99.5428 105° East 471 542 39,000  Level Minneapolis Center
17:16 45.9510 -98.5210 105° East 481 554 39,000  Level FlightAware
17:17 45.9310 -98.4180 106° East 482 555 39,000  Level FlightAware
17:17 45.9120 -98.3210 106° East 482 555 39,000  Level FlightAware
17:18 45.8870 -98.2020 107° East 475 547 39,000  Level FlightAware
17:18 45.8680 -98.1070 106° East 472 543 39,000  Level FlightAware
17:19 45.8470 -98.0020 106° East 469 540 39,000  Level FlightAware
17:20 45.8190 -97.8650 106° East 467 537 39,000  Level FlightAware
17:20 45.7960 -97.7480 106° East 467 537 39,000  Level FlightAware
17:21 45.7770 -97.6550 106° East 467 537 39,000  Level FlightAware
17:22 45.7590 -97.5640 106° East 467 537 39,000  Level FlightAware
17:22 45.7280 -97.4190 107° East 471 542 39,000  Level FlightAware
17:23 45.7060 -97.3180 107° East 474 545 39,000  Level FlightAware
17:24 45.6750 -97.1670 106° East 475 547 39,000  Level FlightAware
17:24 45.6510 -97.0560 107° East 479 551 39,000  Level FlightAware
17:25 45.6270 -96.9420 107° East 483 556 39,000  Level FlightAware
17:25 45.6070 -96.8460 107° East 485 558 39,000  Level FlightAware
17:26 45.5830 -96.7350 107° East 486 559 39,000  Level FlightAware
17:26 45.5620 -96.6380 107° East 486 559 39,000  Level FlightAware
17:27 45.5380 -96.5260 107° East 485 558 39,000  Level FlightAware
17:28 45.5130 -96.4150 108° East 484 557 39,000  Level FlightAware
17:28 45.4940 -96.3260 107° East 483 556 39,000  Level FlightAware
17:29 45.4700 -96.2160 107° East 481 554 39,000  Level FlightAware
17:29 45.4430 -96.0940 107° East 475 547 39,000 -420 Level FlightAware
17:30 45.4200 -95.9930 108° East 466 536 38,500 -1,380 Descending FlightAware
17:31 45.3960 -95.8860 108° East 456 525 37,400 -2,220 Descending FlightAware
17:31 45.3760 -95.7950 107° East 457 526 36,000 -2,760 Descending FlightAware
17:32 45.3560 -95.7060 108° East 467 537 34,500 -2,280 Descending FlightAware
17:32 45.3290 -95.5890 108° East 468 539 33,300 -1,200 Descending FlightAware
17:33 45.3040 -95.4790 108° East 475 547 33,000 -300 Descending FlightAware
17:34 45.2820 -95.3840 108° East 479 551 33,000  Level FlightAware
17:34 45.2580 -95.2770 108° East 480 552 33,000  Level FlightAware
17:35 45.2330 -95.1690 108° East 477 549 33,000  Level FlightAware
17:35 45.2120 -95.0790 108° East 473 544 33,000  Level FlightAware
17:36 45.1880 -94.9770 108° East 472 543 33,000  Level FlightAware
17:36 45.1630 -94.8710 108° East 471 542 33,000  Level FlightAware
17:37 45.1380 -94.7640 108° East 472 543 33,000  Level FlightAware
17:38 45.1130 -94.6590 109° East 471 542 33,000  Level FlightAware
17:38 45.0900 -94.5610 108° East 471 542 33,000  Level FlightAware
17:39 45.0650 -94.4580 109° East 471 542 33,000  Level FlightAware
17:39 45.0420 -94.3620 109° East 471 542 33,000  Level FlightAware
17:40 45.0140 -94.2460 109° East 473 544 33,000  Level FlightAware
17:41 44.9910 -94.1510 109° East 475 547 33,000  Level FlightAware
17:41 44.9640 -94.0400 109° East 477 549 33,000  Level FlightAware
17:42 44.9420 -93.9480 109° East 479 551 33,000  Level FlightAware
17:42 44.9170 -93.8470 109° East 481 554 33,000  Level FlightAware
17:43 44.8900 -93.7400 110° East 482 555 33,000  Level FlightAware
17:43 44.8630 -93.6290 109° East 482 555 33,000  Level FlightAware
17:44 44.8370 -93.5250 109° East 481 554 33,000  Level FlightAware
17:45 44.8110 -93.4200 109° East 481 554 33,000  Level FlightAware
17:45 44.7850 -93.3160 109° East 481 554 33,000  Level FlightAware
17:46 44.7630 -93.2180 108° East 487 560 33,000  Level FlightAware
17:46 44.7550 -93.1200 97° East 498 573 33,000  Level FlightAware
17:47 44.7520 -93.0160 92° East 497 572 33,000  Level FlightAware
17:48 44.7480 -92.8740 92° East 494 568 33,000  Level FlightAware
17:48 44.7440 -92.7660 93° East 493 567 33,000  Level FlightAware
17:49 44.7410 -92.6490 92° East 493 567 33,000  Level FlightAware
17:49 44.7370 -92.5240 93° East 492 566 33,000  Level FlightAware
17:50 44.7330 -92.4080 93° East 492 566 33,000  Level FlightAware
17:51 44.7290 -92.3060 93° East 492 566 33,000  Level FlightAware
17:51 44.7250 -92.1930 93° East 492 566 33,000  Level FlightAware
17:52 44.7210 -92.0750 93° East 493 567 33,000  Level FlightAware
17:52 44.7160 -91.9610 93° East 494 568 33,000  Level FlightAware
17:53 44.7130 -91.8670 93° East 494 568 33,000  Level FlightAware
17:54 44.7080 -91.7370 93° East 495 570 33,000  Level FlightAware
17:54 44.7030 -91.6280 94° East 494 568 33,000  Level FlightAware
17:55 44.6980 -91.5110 93° East 495 570 33,000  Level FlightAware
17:55 44.6940 -91.4100 93° East 495 570 33,000  Level FlightAware
17:56 44.6890 -91.2900 93° East 496 571 33,000  Level FlightAware
17:56 44.6840 -91.1760 93° East 496 571 33,000  Level FlightAware
17:57 44.6780 -91.0590 94° East 498 573 33,000  Level FlightAware
17:58 44.6740 -90.9570 93° East 498 573 33,000  Level FlightAware
17:58 44.6690 -90.8560 94° East 501 577 33,000  Level FlightAware
17:59 44.6790 -90.7180 84° East 507 583 33,000  Level FlightAware
17:59 44.6870 -90.6130 84° East 506 582 33,000  Level FlightAware
18:00 44.6950 -90.5000 84° East 506 582 33,000  Level FlightAware
18:00 44.7020 -90.3840 85° East 506 582 33,000  Level FlightAware
18:01 44.7070 -90.2760 86° East 505 581 33,000  Level FlightAware
18:02 44.7100 -90.1580 88° East 504 580 33,000  Level FlightAware
18:02 44.7090 -90.0470 91° East 502 578 33,000  Level FlightAware
18:03 44.7070 -89.9180 91° East 501 577 33,000  Level FlightAware
18:03 44.7050 -89.8260 92° East 500 575 33,000  Level FlightAware
18:04 44.7010 -89.6980 92° East 499 574 33,000  Level FlightAware
18:05 44.6980 -89.5830 92° East 498 573 33,000  Level FlightAware
18:05 44.6950 -89.4880 93° East 496 571 33,000  Level FlightAware
18:06 44.6910 -89.3650 93° East 497 572 33,000  Level FlightAware
18:06 44.6880 -89.2510 92° East 496 571 33,000  Level FlightAware
18:07 44.6840 -89.1460 93° East 497 572 33,000  Level FlightAware
18:07 44.6810 -89.0350 92° East 499 574 33,000  Level FlightAware
18:08 44.6760 -88.9140 93° East 500 575 33,000  Level FlightAware
18:09 44.6710 -88.7710 93° East 501 577 33,000  Level FlightAware
18:09 44.6690 -88.6630 91° East 501 577 33,000  Level FlightAware
18:10 44.6660 -88.5600 92° East 501 577 33,000  Level FlightAware
18:11 44.6570 -88.3810 94° East 502 578 33,000  Level FlightAware
18:11 44.6530 -88.2780 93° East 502 578 33,000  Level FlightAware
18:12 44.6480 -88.1610 93° East 502 578 33,000  Level FlightAware
18:13 44.6420 -88.0220 93° East 502 578 33,000  Level FlightAware
18:13 44.6370 -87.9100 94° East 502 578 33,000  Level FlightAware
18:14 44.6330 -87.7950 93° East 503 579 33,000  Level FlightAware
18:14 44.6290 -87.6920 93° East 503 579 33,000  Level FlightAware
18:15 44.6210 -87.5530 95° East 503 579 33,000  Level FlightAware
18:16 44.6170 -87.4470 93° East 503 579 33,000  Level FlightAware
18:16 44.6090 -87.3070 95° East 503 579 33,000  Level FlightAware
18:17 44.6040 -87.2100 94° East 503 579 33,000  Level FlightAware
18:17 44.5980 -87.0910 94° East 503 579 33,000  Level FlightAware
18:18 44.5920 -86.9650 94° East 502 578 33,000  Level FlightAware
18:19 44.5840 -86.8110 94° East 502 578 33,000  Level FlightAware
18:20 44.5790 -86.7120 94° East 502 578 33,000  Level FlightAware
18:20 44.5710 -86.5710 95° East 501 577 33,000  Level FlightAware
18:21 44.5650 -86.4620 94° East 499 574 33,000  Level FlightAware
18:21 44.5590 -86.3520 94° East 499 574 33,000  Level FlightAware
18:22 44.5500 -86.2110 95° East 498 573 33,000  Level FlightAware
18:23 44.5390 -86.0240 95° East 497 572 33,000  Level FlightAware
18:23 44.5330 -85.9250 95° East 496 571 33,000  Level FlightAware
18:24 44.5260 -85.8090 95° East 496 571 33,000  Level FlightAware
18:25 44.5180 -85.6830 95° East 496 571 33,000  Level FlightAware
18:25 44.5120 -85.5800 95° East 495 570 33,000  Level FlightAware
18:26 44.5040 -85.4670 96° East 495 570 33,000  Level FlightAware
18:26 44.4970 -85.3520 95° East 495 570 33,000  Level FlightAware
18:27 44.4890 -85.2400 96° East 495 570 33,000  Level FlightAware
18:28 44.4820 -85.1350 95° East 495 570 33,000  Level FlightAware
18:28 44.4740 -85.0210 96° East 495 570 33,000  Level FlightAware
18:29 44.4660 -84.9040 95° East 494 568 33,000  Level FlightAware
18:29 44.4590 -84.7990 95° East 494 568 33,000  Level FlightAware
18:30 44.4510 -84.6840 96° East 494 568 33,000  Level FlightAware
18:30 44.4430 -84.5790 96° East 494 568 33,000  Level FlightAware
18:31 44.4340 -84.4610 96° East 495 570 33,000  Level FlightAware
18:32 44.4270 -84.3640 96° East 496 571 33,000  Level FlightAware
18:32 44.4170 -84.2330 96° East 498 573 33,000  Level FlightAware
18:33 44.4090 -84.1310 96° East 499 574 33,000  Level FlightAware
18:33 44.4010 -84.0250 96° East 500 575 33,000  Level FlightAware
18:34 44.3910 -83.9040 97° East 501 577 33,000  Level FlightAware
18:35 44.3830 -83.7980 96° East 501 577 33,000  Level FlightAware
18:35 44.3760 -83.7060 96° East 500 575 33,000  Level FlightAware
18:36 44.3630 -83.5470 96° East 500 575 33,000  Level FlightAware
18:36 44.3540 -83.4440 97° East 499 574 33,000  Level FlightAware
18:37 44.3440 -83.3280 97° East 498 573 33,000  Level FlightAware
18:38 44.3350 -83.2200 97° East 497 572 33,000  Level FlightAware
18:38 44.3250 -83.0970 96° East 497 572 33,000  Level FlightAware
18:39 44.3150 -82.9820 97° East 496 571 33,000  Level FlightAware
18:39 44.3060 -82.8790 97° East 496 571 33,000  Level FlightAware
18:40 44.2960 -82.7730 97° East 495 570 33,000  Level FlightAware
18:40 44.2860 -82.6630 97° East 494 568 33,000  Level FlightAware
18:41 44.2750 -82.5340 97° East 493 567 33,000  Level FlightAware
18:42 44.2640 -82.4170 97° East 493 567 33,000  Level FlightAware
18:42 44.2540 -82.3090 97° East 493 567 33,000  Level FlightAware
18:43 44.2520 -82.1700 91° East 493 567 33,000  Level FlightAware
18:44 44.2560 -82.0570 87° East 492 566 33,000  Level FlightAware
18:44 44.2600 -81.9410 87° East 491 565 33,000  Level FlightAware
18:45 44.2640 -81.8330 87° East 490 564 33,000  Level FlightAware
18:45 44.2680 -81.7200 87° East 490 564 33,000  Level FlightAware
18:46 44.2710 -81.6150 88° East 489 563 33,000  Level FlightAware
18:47 44.2750 -81.5010 87° East 489 563 33,000  Level FlightAware
18:47 44.2770 -81.4100 88° East 488 562 33,000  Level FlightAware
18:48 44.2820 -81.2550 87° East 488 562 33,000  Level FlightAware
18:49 44.2850 -81.1440 88° East 486 559 33,000  Level FlightAware
18:49 44.2870 -81.0490 88° East 486 559 33,000  Level FlightAware
18:50 44.2910 -80.9240 87° East 486 559 33,000  Level FlightAware
18:50 44.2930 -80.8110 89° East 487 560 33,000  Level FlightAware
18:51 44.2960 -80.6880 88° East 487 560 33,000 240 Level FlightAware
18:52 44.2990 -80.5820 88° East 488 562 33,300 1,020 Climbing FlightAware
18:52 44.3010 -80.4670 89° East 488 562 34,200 1,560 Climbing FlightAware
18:53 44.3030 -80.3580 88° East 486 559 35,200 1,680 Climbing FlightAware
18:53 44.3050 -80.2470 89° East 482 555 36,200 1,620 Climbing FlightAware
18:54 44.3070 -80.1390 88° East 479 551 37,100 1,440 Climbing FlightAware
18:55 44.3100 -80.0190 88° East 477 549 38,000 1,200 Climbing FlightAware
18:55 44.3110 -79.9380 89° East 476 548 38,500 900 Climbing FlightAware
18:56 44.3130 -79.8180 89° East 476 548 39,000 420 Climbing FlightAware
18:56 44.3150 -79.7110 88° East 473 544 39,000  Level FlightAware
18:57 44.3160 -79.6050 89° East 471 542 39,000  Level FlightAware
18:57 44.3180 -79.4860 89° East 471 542 39,000  Level FlightAware
18:58 44.3190 -79.3930 89° East 471 542 39,000  Level FlightAware
18:59 44.3210 -79.2870 88° East 469 540 39,000  Level FlightAware
18:59 44.3150 -79.1980 95° East 474 545 39,000  Level FlightAware
19:00 44.2950 -79.0920 105° East 477 549 39,000  Level FlightAware
19:00 44.2720 -78.9910 108° East 475 547 39,000  Level FlightAware
19:01 44.2490 -78.8930 108° East 474 545 39,000  Level FlightAware
19:01 44.2270 -78.7960 108° East 473 544 39,000  Level FlightAware
19:02 44.2020 -78.6860 108° East 472 543 39,000  Level FlightAware
19:03 44.1780 -78.5840 108° East 471 542 39,000  Level FlightAware
19:03 44.1560 -78.4870 108° East 470 541 39,000  Level FlightAware
19:04 44.1320 -78.3840 108° East 470 541 39,000  Level FlightAware
19:04 44.1090 -78.2830 108° East 470 541 39,000  Level FlightAware
19:05 44.0870 -78.1890 108° East 472 543 39,000  Level FlightAware
19:05 44.0620 -78.0820 108° East 473 544 39,000  Level FlightAware
19:06 44.0390 -77.9830 108° East 473 544 39,000  Level FlightAware
19:07 44.0130 -77.8750 108° East 472 543 39,000  Level FlightAware
19:07 43.9890 -77.7730 108° East 472 543 39,000  Level FlightAware
19:08 43.9650 -77.6740 109° East 472 543 39,000  Level FlightAware
19:08 43.9420 -77.5760 108° East 473 544 39,000  Level FlightAware
19:09 43.9170 -77.4730 109° East 473 544 39,000  Level FlightAware
19:10 43.8910 -77.3660 109° East 472 543 39,000  Level FlightAware
19:10 43.8700 -77.2790 108° East 472 543 39,000  Level FlightAware
19:11 43.8430 -77.1710 109° East 473 544 39,000  Level FlightAware
19:11 43.8250 -77.0970 109° East 472 543 39,000  Level FlightAware
19:12 43.7940 -76.9690 109° East 470 541 39,000  Level FlightAware
19:13 43.7680 -76.8670 109° East 469 540 39,000  Level FlightAware
19:13 43.7450 -76.7740 109° East 469 540 39,000  Level FlightAware
19:13 43.7180 -76.7090 120° Southeast 474 545 39,000  Level FlightAware
19:14 43.6720 -76.6380 132° Southeast 476 548 39,000  Level FlightAware
19:15 43.6170 -76.5650 136° Southeast 476 548 39,000  Level FlightAware
19:15 43.5580 -76.4880 137° Southeast 476 548 39,000  Level FlightAware
19:16 43.4990 -76.4110 137° Southeast 477 549 39,000  Level FlightAware
19:16 43.4480 -76.3440 136° Southeast 477 549 39,000  Level FlightAware
19:17 43.3910 -76.2700 137° Southeast 477 549 39,000  Level FlightAware
19:18 43.3340 -76.1950 136° Southeast 476 548 39,000  Level FlightAware
19:18 43.2820 -76.1260 136° Southeast 476 548 39,000  Level FlightAware
19:19 43.2260 -76.0530 136° Southeast 476 548 39,000  Level FlightAware
19:19 43.1670 -75.9770 137° Southeast 476 548 39,000  Level FlightAware
19:20 43.1120 -75.9050 136° Southeast 475 547 39,000  Level FlightAware
19:20 43.0600 -75.8390 137° Southeast 476 548 39,000  Level FlightAware
19:21 43.0060 -75.7690 137° Southeast 477 549 39,000  Level FlightAware
19:22 42.9550 -75.7030 137° Southeast 477 549 39,000  Level FlightAware
19:22 42.9020 -75.6350 137° Southeast 477 549 39,000 -180 Level FlightAware
19:23 42.8440 -75.5600 137° Southeast 475 547 38,800 -720 Descending FlightAware
19:23 42.7860 -75.4870 137° Southeast 474 545 38,200 -840 Descending FlightAware
19:24 42.7280 -75.4130 137° Southeast 466 536 37,800 -840 Descending FlightAware
19:24 42.6790 -75.3500 137° Southeast 461 531 37,300 -1,680 Descending FlightAware
19:25 42.6220 -75.2790 137° Southeast 464 534 35,900 -1,920 Descending FlightAware
19:26 42.5690 -75.2120 137° Southeast 470 541 35,100 -780 Descending FlightAware
19:26 42.5110 -75.1380 137° Southeast 471 542 35,000 -720 Descending FlightAware
19:27 42.4530 -75.0650 137° Southeast 469 540 34,300 -1,740 Descending FlightAware
19:27 42.4030 -75.0030 138° Southeast 478 550 33,000 -2,100 Descending FlightAware
19:28 42.3410 -74.9250 137° Southeast 481 554 31,900 -1,800 Descending FlightAware
19:29 42.2840 -74.8540 137° Southeast 481 554 30,900 -1,860 Descending FlightAware
19:29 42.2230 -74.7780 137° Southeast 483 556 29,700 -1,740 Descending FlightAware
19:30 42.1700 -74.7130 138° Southeast 481 554 28,900 -1,440 Descending FlightAware
19:30 42.1160 -74.6460 137° Southeast 478 550 28,100 -780 Descending FlightAware
19:31 42.0540 -74.5690 137° Southeast 474 545 28,000 -120 Descending FlightAware
19:31 42.0020 -74.5040 137° Southeast 476 548 28,000  Level FlightAware
19:32 41.9500 -74.4210 130° Southeast 477 549 28,000  Level FlightAware
19:32 41.9090 -74.3670 136° Southeast 479 551 28,000 -240 Level FlightAware
19:33 41.8580 -74.3270 150° Southeast 477 549 27,800 -960 Descending FlightAware
19:34 41.7810 -74.2830 157° South 479 551 27,000 -1,080 Descending FlightAware
19:34 41.7070 -74.2420 158° South 474 545 26,500 -1,620 Descending FlightAware
19:35 41.6410 -74.2060 158° South 469 540 25,200 -2,400 Descending FlightAware
19:35 41.5700 -74.1660 157° South 458 527 23,700 -2,640 Descending FlightAware
19:36 41.5010 -74.1270 157° South 447 514 22,100 -2,580 Descending FlightAware
19:37 41.4240 -74.0930 162° South 437 503 20,500 -1,500 Descending FlightAware
19:37 41.3330 -74.0930 180° South 435 501 20,000 -420 Descending FlightAware
19:38 41.2690 -74.0990 184° South 435 501 20,000  Level FlightAware
19:38 41.1960 -74.1070 185° South 434 499 20,000 -240 Level FlightAware
19:39 41.1125 -74.1156 184° South 431 496 19,700 -540 Descending FlightAware ADS-B
19:40 41.0526 -74.1216 184° South 429 494 19,400 -540 Descending FlightAware ADS-B
19:40 40.9891 -74.1279 184° South 427 491 19,200 -420 Descending FlightAware ADS-B
19:41 40.9284 -74.1203 175° South 385 443 19,000 -240 Descending FlightAware ADS-B
19:41 40.8750 -74.1034 167° South 350 403 19,000 -120 Level FlightAware ADS-B
19:42 40.8258 -74.0893 168° South 343 395 18,900 -840 Descending FlightAware ADS-B
19:42 40.7720 -74.0743 168° South 340 391 18,100 -1,440 Descending FlightAware ADS-B
19:43 40.7154 -74.0579 168° South 337 388 17,200 -1,320 Descending FlightAware ADS-B
19:44 40.6600 -74.0420 168° South 323 372 16,400 -1,200 Descending FlightAware
19:44 40.6080 -74.0280 168° South 315 362 15,600 -1,500 Descending FlightAware
19:45 40.5560 -74.0140 168° South 312 359 14,700 -1,560 Descending FlightAware
19:45 40.5170 -74.0040 169° South 310 357 14,000 -1,680 Descending FlightAware
19:46 40.4540 -73.9790 163° South 305 351 12,700 -2,100 Descending FlightAware
19:47 40.4120 -73.9560 157° South 300 345 11,400 -2,340 Descending FlightAware
19:47 40.3700 -73.9300 155° Southeast 294 338 10,100 -2,400 Descending FlightAware
19:47 40.3570 -73.9130 135° Southeast 290 334 9,500 -2,640 Descending FlightAware
19:48 40.3360 -73.8790 129° Southeast 289 333 8,500 -2,400 Descending FlightAware
19:48 40.3190 -73.8470 125° Southeast 288 331 7,700 -2,100 Descending FlightAware
19:48 40.3150 -73.8340 112° Southeast 287 330 7,500 -1,500 Descending FlightAware
19:48 40.3140 -73.8210 96° East 284 327 7,300 -1,560 Descending FlightAware
19:49 40.3210 -73.7850 76° East 279 321 6,700 -1,680 Descending FlightAware
19:49 40.3300 -73.7610 64° Northeast 278 320 6,200 -1,680 Descending FlightAware
19:49 40.3400 -73.7450 51° Northeast 276 318 5,900 -1,440 Descending FlightAware
19:50 40.3550 -73.7230 48° Northeast 276 318 5,500 -1,620 Descending FlightAware
19:50 40.3780 -73.6910 47° Northeast 276 318 4,800 -1,440 Descending FlightAware
19:50 40.3970 -73.6660 45° Northeast 275 316 4,400 -1,200 Descending FlightAware
19:51 40.4150 -73.6410 47° Northeast 273 314 4,000 -900 Descending FlightAware
19:51 40.4320 -73.6170 47° Northeast 270 311 3,800 -300 Descending FlightAware
19:51 40.4500 -73.5910 48° Northeast 269 310 3,800  Level FlightAware
19:52 40.4680 -73.5660 47° Northeast 269 310 3,800  Level FlightAware
19:52 40.4850 -73.5420 47° Northeast 269 310 3,800  Level FlightAware
19:52 40.5070 -73.5160 42° Northeast 269 310 3,800  Level FlightAware
19:53 40.5220 -73.5010 37° Northeast 269 310 3,800  Level FlightAware
19:53 40.5430 -73.4800 37° Northeast 270 311 3,800  Level FlightAware
19:53 40.5620 -73.4610 37° Northeast 271 312 3,800  Level FlightAware
19:54 40.5720 -73.4540 28° Northeast 270 311 3,800  Level FlightAware
19:54 40.5820 -73.4510 13° North 268 308 3,800  Level FlightAware
19:54 40.6070 -73.4590 346° North 268 308 3,800  Level FlightAware
19:54 40.6220 -73.4710 329° Northwest 267 307 3,800 -360 Level FlightAware
19:55 40.6390 -73.4860 326° Northwest 262 302 3,600 -1,080 Descending FlightAware
19:55 40.6680 -73.5110 327° Northwest 260 299 3,000 -1,200 Descending FlightAware
19:55 40.6860 -73.5270 326° Northwest 258 297 2,700 -900 Descending FlightAware
19:56 40.7030 -73.5420 326° Northwest 256 295 2,400 -780 Descending FlightAware
19:56 40.7240 -73.5590 328° Northwest 244 281 2,200 -720 Descending FlightAware
19:56 40.7490 -73.5850 322° Northwest 226 260 1,900 -600 Descending FlightAware
19:57 40.7590 -73.6080 300° West 216 249 1,800 -240 Descending FlightAware
19:57 40.7640 -73.6210 297° West 210 242 1,800  Level FlightAware
19:57 40.7680 -73.6320 296° West 207 238 1,800  Level FlightAware
19:57 40.7690 -73.6400 279° West 203 234 1,800  Level FlightAware
19:58 40.7610 -73.6610 243° Southwest 183 211 1,800  Level FlightAware
19:58 40.7560 -73.6660 217° Southwest 181 208 1,800  Level FlightAware
19:58 40.7480 -73.6740 217° Southwest 176 203 1,800  Level FlightAware
19:58 40.7360 -73.6840 212° Southwest 157 181 1,800 -300 Level FlightAware
19:59 40.7230 -73.6940 210° Southwest 149 171 1,600 -660 Descending FlightAware
19:59 40.7120 -73.7030 212° Southwest 151 174 1,400 -840 Descending FlightAware
19:59 40.7000 -73.7120 210° Southwest 144 166 1,100 -780 Descending FlightAware
20:00 40.6900 -73.7200 211° Southwest 126 145 900 -780 Descending FlightAware
20:00 40.6790 -73.7280 209° Southwest 116 133 600 -600 Descending FlightAware
20:00 40.6710 -73.7350 214° Southwest 118 136 500 -600 Descending FlightAware
20:00 40.6650 -73.7400 212° Southwest 118 136 300 -660 Descending FlightAware
20:01 40.6530 -73.7490 210° Southwest 119 137 100 -540 Descending FlightAware
20:01 40.6430 -73.7560 208° Southwest 119 137 -300 Descending FlightAware